Regional Weather Roundup
Issued by NWS

Home | Current Version | Previous Version | Text Only | Print | Product List | Glossary On
Versions: 1 2 3 4 5 6 7 8 9 10 11 12 13 14 15 16 17 18 19 20 21 22 23 24 25 26 27 28 29 30 31 32 33 34 35 36 37 38 39 40 41 42 43 44 45 46 47 48 49 50
000
ASUS43 KMPX 280901
RWRMN
WEATHER ROUNDUP FOR MINNESOTA
NATIONAL WEATHER SERVICE TWIN CITIES/CHANHASSEN MN
300 AM CST FRI NOV 28 2014


NOTE: "FAIR" INDICATES FEW OR NO CLOUDS BELOW 12,000 FEET WITH NO
SIGNIFICANT WEATHER AND/OR OBSTRUCTIONS TO VISIBILITY. N/A MEANS
CURRENT SKY AND/OR WEATHER CONDITIONS ARE NOT AVAILABLE.

MNZ060>063-068>070-281000-
   Twin Cities Metro

CITY           SKY/WX    TMP DP  RH WIND       PRES   REMARKS
TWIN CITIES    CLOUDY     8   5  87 E15       30.14F WCI  -9
ST PAUL        LGT SNOW  10   6  84 SE12      30.17F FOG     WCI  -5
CRYSTAL        FLURRIES  10   5  80 SE12      30.12F WCI  -5
BLAINE         FLURRIES  10   7  85 SE10G16   30.12F WCI  -3
LAKEVILLE      CLOUDY     9   5  85 SE10      30.13F WCI  -6
EDEN PRAIRIE   CLOUDY    10   5  80 SE15      30.11F WCI  -7
SOUTH ST PAUL  CLOUDY    10   6  82 SE7       30.16F WCI  -1
LAKE ELMO      LGT SNOW  10   9  92 SE8       30.16F WCI  -1
$$
MNZ001>005-007-008-013>017-022>024-027-028-281000-
   Northwest Minnesota

CITY           SKY/WX    TMP DP  RH WIND       PRES   REMARKS
BEMIDJI        CLOUDY     7   2  80 SE8       30.05S WCI  -6
HALLOCK        FLURRIES  10   3  72 E6        30.08F WCI   1
ROSEAU         CLOUDY     9   1  72 E3        30.10R
WARROAD        CLOUDY     7   1  78 E5        30.10S WCI  -2
THIEF RVR FALL CLOUDY    10   7  85 E10       30.06S WCI  -3
CROOKSTON      FLURRIES  12   7  79 SE8       30.06F WCI   1
FOSSTON        FLURRIES   9   3  78 E6        30.03F WCI  -1
DETROIT LAKES  MOCLDY    10   7  85 SE13      30.00F WCI  -5
MOORHEAD       MIX PCPN  12  10  92 SE12G18   30.02F WCI  -2
PARK RAPIDS    CLOUDY     7   2  80 SE8       30.02F WCI  -6
MAHNOMEN       CLOUDY    10   4  77 SE9       30.01F WCI  -3
$$
MNZ006-009>011-018-025>026-281000-
   North Central Minnesota

CITY           SKY/WX    TMP DP  RH WIND       PRES   REMARKS
BAUDETTE       CLOUDY     5  -1  76 SE6       30.09F WCI  -6
FLAG ISLAND    PTCLDY     3  -2  78 SE3       30.09F
INTL FALLS     CLOUDY     4  -3  73 SE3       30.12F
WASKISH        FLURRIES   9   3  78 CALM      30.09F
BIG FORK       LGT SNOW   9   1  72 SE3       30.10S
LONGVILLE      CLOUDY     7   1  78 CALM      30.08F
GRAND RAPIDS   CLOUDY     7   1  78 SE5       30.08F WCI  -2
CRANE LAKE     CLOUDY     3   0  85 CALM      30.16F
ORR            CLOUDY     5  -4  66 CALM      30.08F
COOK           CLOUDY     7  -2  66 SE5       30.11F WCI  -2
WALKER         CLOUDY     7   1  79 SE5       30.07S WCI  -2
$$
MNZ012-019>021-037-281000-
   Northeast Minnesota

CITY           SKY/WX    TMP DP  RH WIND       PRES   REMARKS
DULUTH         LGT SNOW   6  -2  69 SE3       30.13F
ELY            CLOUDY     3  -2  78 CALM      30.12F
HIBBING        LGT SNOW   7  -1  70 SE7       30.11F WCI  -5
EVELETH        FLURRIES   7   0  72 CALM      30.13F
DULUTH HARBOR  FLURRIES  10   1  67 CALM      30.22F
TWO HARBORS    CLOUDY    12   0  57 SW3       30.14F
SILVER BAY     MOCLDY    10   1  67 CALM      30.16F
GRAND MARAIS     N/A     12   2  64 NW5       30.22F WCI   4
G MARAIS ARPRT CLOUDY     3  -8  60 CALM      30.11F
$$
MNZ029>031-032-039>041-046>048-054>057-064-281000-
   West Central Minnesota

CITY           SKY/WX    TMP DP  RH WIND       PRES   REMARKS
FERGUS FALLS   FLURRIES  10   3  72 SE15      30.04F WCI  -6
WHEATON        PTCLDY     7   1  78 SE18      30.00F WCI -12
MORRIS         MOCLDY     9   1  72 SE22      30.01F WCI -11
ALEXANDRIA     CLOUDY     7   3  84 SE14      30.02F WCI -10
ELBOW LAKE     CLOUDY     9   3  78 SE17G24   29.99F WCI -10
WADENA         CLOUDY     7   1  78 SE9       30.02F WCI  -7
GLENWOOD       CLEAR      7   3  85 SE16      30.03F WCI -11
APPLETON       PTCLDY     9   1  72 SE13      30.02F WCI  -7
BENSON         CLOUDY     9   3  78 SE15      30.03F WCI  -8
ORTONVILLE     PTCLDY     7   0  72 SE10      29.98F WCI  -8
MADISON        PTCLDY    10   7  85 SE16      30.00F WCI  -7
WILLMAR        MOCLDY     9   3  78 SE13      30.07S WCI  -7
$$
MNZ033>034-036-042>043-049>051-058-059-281000-
   Central Minnesota

CITY           SKY/WX    TMP DP  RH WIND       PRES   REMARKS
ST CLOUD       CLOUDY     9   3  77 SE9       30.09F WCI  -4
SAUK CENTRE    CLOUDY     7   3  83 SE15      30.05F WCI -10
PAYNESVILLE    CLOUDY     5   2  87 E8        30.07F WCI  -8
AITKIN         FLURRIES  10   3  72 SE7       30.09S WCI   0
PINE RIVER     CLOUDY     7   3  85 SE5       30.10F WCI  -2
BRAINERD       CLOUDY     6   2  83 SE8       30.09F WCI  -7
STAPLES        CLOUDY     7   1  78 SE8       30.03F WCI  -6
LONG PRAIRIE   CLOUDY     7   1  78 SE9       30.04F WCI  -7
LITTLE FALLS   LGT SNOW   9   3  78 SE6       30.08F WCI  -1
LITCHFIELD     CLOUDY     9   7  92 SE12      30.08F WCI  -6
BUFFALO        CLOUDY     9   5  82 E12       30.11F WCI  -6
MAPLE LAKE     FLURRIES  10   7  87 E9        30.09F WCI  -3
$$
MNZ037-044-045-052-053-281000-
   East Central Minnesota

CITY           SKY/WX    TMP DP  RH WIND       PRES   REMARKS
PRINCETON      LGT SNOW   9   3  78 E7        30.11F WCI  -3
MORA             N/A    N/A N/A N/A MISG        N/A
CAMBRIDGE      LGT SNOW   9   1  72 SE7       30.12F WCI  -3
RUSH CITY      CLOUDY     8   4  85 SE5       30.16F WCI   0
MOOSE LAKE     FLURRIES   9   3  78 SE3       30.12F
HINCKLEY       FLURRIES  10   5  79 CALM      30.15F
CLOQUET        FLURRIES   7   1  78 E5        30.13F WCI  -2
MCGREGOR       CLOUDY     9   5  85 SE6       30.12S WCI  -1
$$
MNZ071>073-080-081-089-090-097-098-281000-
   Southwest Minnesota

CITY           SKY/WX    TMP DP  RH WIND       PRES   REMARKS
MONTEVIDEO     PTCLDY     9   3  78 S16       30.03F WCI  -9
GRANITE FALLS  MOCLDY     9   3  77 E13       30.04F WCI  -7
CANBY          PTCLDY    11   7  83 SE8       29.98F WCI   0
MARSHALL       PTCLDY    12   5  73 SE12      29.98F WCI  -2
REDWOOD FALLS  CLOUDY    11   5  77 SE15      30.05F WCI  -5
OLIVIA         MOCLDY    10   5  79 SE13      30.05F WCI  -5
PIPESTONE      PTCLDY    14  10  85 S12       29.91F WCI   0
WINDOM         CLOUDY    12   9  85 SE9G20    29.99F WCI   0
WORTHINGTON    MOCLDY    12  10  92 S13       29.95F WCI  -3
JACKSON        CLOUDY    14   9  79 S13G18    29.99F WCI   0
TRACY          PTCLDY    13   8  80 SE9       29.99F WCI   1
SLAYTON        PTCLDY    13  10  87 SE13      29.95F WCI  -1
$$
MNZ065>067-074>077-082>085-091>093-281000-
   South Central Minnesota

CITY           SKY/WX    TMP DP  RH WIND       PRES   REMARKS
MANKATO        CLOUDY    12   3  67 SE17      30.07F WCI  -5
NEW ULM        CLOUDY    10   7  85 SE13      30.05S WCI  -5
ST JAMES       CLOUDY    14   7  73 SE15      30.04F WCI  -1
FAIRMONT       CLOUDY    12   5  73 SE22      30.01F WCI  -7
GLENCOE        MOCLDY    10   7  89 E14       30.08F FOG     WCI  -6
FARIBAULT      CLOUDY    10   7  85 SE12      30.11F WCI  -4
OWATONNA       CLOUDY    12   7  79 SE21      30.08F WCI  -6
WASECA         CLOUDY    12   3  67 SE20      30.09F WCI  -6
ALBERT LEA     CLOUDY    12   7  79 SE14G23   30.10F WCI  -3
$$
MNZ078>079-086>088-094>096-281000-
   Southeast Minnesota

CITY           SKY/WX    TMP DP  RH WIND       PRES   REMARKS
ROCHESTER      CLOUDY    10   6  84 SE18      30.14F WCI  -8
RED WING       LGT SNOW  10   7  85 SE10      30.18F WCI  -3
STANTON        CLOUDY    12   7  79 SE8       30.13F WCI   0
DODGE CENTER   CLOUDY    10   9  92 SE16      30.11F WCI  -7
WINONA         LGT SNOW  14  10  85 SE10      30.25F WCI   1
AUSTIN         CLOUDY    10   7  85 SE12G18   30.12F WCI  -4
PRESTON        LGT SNOW  10   6  85 SE12      30.17F WCI  -5
$$
ABBREVIATIONS USED IN REMARKS
   TC - TEMPERATURES IN CELSIUS
  WCI - WIND CHILL INDEX
   HX - HEAT INDEX
  VSB - VISIBILITY
$$


USA.gov is the U.S. government's official web portal to all federal, state and local government web resources and services.